Temp
21 21 20 20 20 20 20 20 21 21 20 20 21 21 21 21 21 20 21 21 20 20 20 20 20 20 20 20 20 20 21 21 21 21 21 21 21 21 21 21 21 21
22 21 21 20 20 20 20 20 21 21 21 21 20 21 20 20 20 20 20 20 21 20 20 20 20 20 20 20 20 20 20 21 21 21 21 21 21 21 21 21 21 21
22 22 21 21 21 21 20 20 20 21 21 21 20 20 20 20 20 20 20 20 20 20 20 20 20 20 20 20 20 20 20 20 21 21 21 21 21 21 21 21 21 21
22 22 22 22 22 21 21 20 20 21 21 20 20 20 20 20 20 20 20 20 20 20 21 21 20 20 20 20 20 20 20 20 20 21 21 21 21 21 21 21 21 20
23 23 22 22 22 22 21 21 20 21 21 21 20 20 20 20 20 20 20 20 20 21 21 21 20 21 21 21 21 21 21 21 20 20 21 21 21 21 21 21 21 20
23 23 23 23 22 22 22 21 21 21 21 21 21 20 20 20 20 20 20 20 20 21 21 21 21 21 21 21 21 21 21 21 20 20 21 21 21 21 21 21 21 21
23 23 23 23 23 22 21 21 21 20 20 21 21 20 21 20 20 20 20 20 21 21 21 21 21 21 21 21 21 21 21 21 21 21 20 21 21 21 21 21 20 20
22 22 22 22 22 22 21 21 21 21 20 20 21 21 21 21 20 20 20 21 21 21 21 21 22 21 21 21 21 21 21 21 21 21 21 21 21 21 21 21 20 20
21 21 22 22 22 22 22 21 20 21 21 21 21 21 21 21 21 21 20 21 21 21 21 21 21 21 21 21 21 21 21 21 21 21 21 21 21 21 21 21 21 20
20 21 21 21 22 22 22 22 21 21 21 21 21 21 21 21 21 21 21 21 21 21 21 21 20 20 21 21 21 21 21 21 21 21 21 21 21 21 21 21 21 21
20 20 20 21 21 21 21 22 21 21 21 21 21 21 21 21 21 21 21 21 21 21 21 21 20 20 20 20 21 21 22 21 21 21 21 21 21 21 21 21 21 21
21 21 20 20 20 20 20 21 21 21 21 21 21 21 21 21 21 21 21 21 21 21 21 21 21 20 21 21 21 21 22 22 22 21 21 21 21 21 22 22 22 22
21 21 21 21 20 20 20 21 21 21 21 21 22 22 22 22 22 21 22 22 22 22 22 21 21 21 21 21 21 21 22 22 22 22 21 21 21 22 22 22 22 22
20 21 21 21 21 21 21 21 21 21 21 21 22 22 22 22 22 22 22 22 22 22 22 22 22 22 22 22 21 22 22 22 22 22 22 22 22 22 22 22 22 22
20 20 20 20 21 21 21 21 21 21 21 21 21 21 22 22 22 22 22 22 22 22 22 22 22 22 23 23 23 22 22 22 22 22 23 22 22 22 22 22 22 22
20 20 20 20 20 21 21 21 22 22 22 22 21 21 21 22 22 22 22 22 22 23 23 23 23 23 23 23 23 23 23 23 23 22 23 23 23 22 22 22 22 22
19 19 20 20 20 20 20 21 21 22 22 22 22 21 21 22 22 22 22 22 22 23 23 23 23 23 23 23 23 23 24 24 23 23 23 23 23 23 23 22 22 21
18 19 19 20 20 20 20 20 21 21 22 22 22 22 22 22 22 22 22 22 22 22 23 23 23 23 23 23 23 23 23 23 23 23 23 23 23 23 23 23 22 22
18 18 19 19 20 20 20 20 21 21 21 21 22 22 22 22 22 22 22 22 22 22 22 23 23 23 23 23 23 23 23 23 23 23 23 23 23 23 23 23 23 23
17 18 19 19 20 20 20 20 20 21 21 20 21 21 21 22 22 22 22 22 22 22 22 22 22 22 22 22 23 23 23 23 23 23 23 23 23 23 23 23 23 23
17 17 18 19 19 20 20 20 21 21 21 21 21 21 21 21 21 22 22 22 22 22 22 22 22 22 22 22 22 22 22 22 22 22 22 22 22 22 23 23 23 23
16 17 17 18 19 19 19 20 20 20 20 20 20 20 20 20 21 22 22 22 22 22 22 23 23 23 22 22 22 22 22 22 22 22 22 22 22 22 22 22 22 22
16 16 17 17 18 19 19 19 19 19 19 19 19 20 20 20 21 21 21 21 22 22 22 22 22 23 23 23 22 22 22 22 22 22 22 22 22 22 22 22 22 22
16 16 16 17 17 18 18 18 19 19 18 18 19 19 19 19 20 20 21 21 21 21 22 22 22 22 22 22 22 22 22 22 22 22 21 21 22 22 22 22 22 22
17 16 16 16 16 16 17 17 18 18 19 19 19 19 19 19 19 20 20 20 21 21 21 22 22 22 22 22 22 22 22 22 22 22 22 22 21 21 21 22 22 22
17 17 16 16 15 16 16 16 17 17 18 18 18 18 18 18 19 19 20 20 20 20 21 21 21 22 22 22 22 22 21 22 22 22 22 22 21 21 21 21 21 21
Height
1584 1586 1587 1589 1590 1592 1593 1595 1596 1597 1598 1599 1600 1601 1601 1602 1603 1604 1605 1605 1606 1606 1607 1608 1608 1609 1609 1610 1610 1610 1610 1611 1611 1612 1613 1613 1614 1614 1615 1615 1615 1616
1583 1585 1586 1588 1589 1591 1592 1594 1595 1597 1598 1599 1600 1601 1602 1603 1603 1604 1605 1605 1606 1606 1606 1607 1608 1608 1609 1609 1610 1610 1610 1611 1611 1612 1612 1613 1613 1614 1614 1615 1615 1616
1582 1583 1585 1587 1588 1590 1591 1593 1595 1596 1597 1598 1599 1600 1601 1602 1603 1604 1605 1605 1606 1606 1606 1607 1608 1608 1608 1609 1609 1610 1610 1610 1611 1611 1612 1612 1613 1613 1613 1614 1614 1615
1580 1582 1584 1586 1587 1589 1591 1592 1593 1595 1596 1598 1599 1600 1601 1602 1603 1603 1604 1605 1606 1606 1606 1607 1607 1608 1608 1608 1609 1609 1610 1610 1610 1611 1611 1611 1612 1612 1613 1613 1613 1614
1578 1580 1582 1584 1586 1588 1589 1591 1592 1593 1595 1596 1598 1599 1600 1601 1602 1603 1603 1604 1605 1606 1606 1606 1607 1607 1608 1608 1608 1609 1609 1610 1610 1610 1610 1610 1611 1611 1612 1612 1612 1613
1576 1579 1580 1583 1584 1586 1588 1589 1591 1592 1594 1595 1596 1598 1599 1600 1601 1602 1602 1603 1604 1605 1605 1606 1606 1607 1607 1608 1608 1609 1609 1609 1610 1610 1610 1610 1610 1611 1611 1611 1612 1612
1575 1577 1578 1581 1582 1584 1586 1588 1590 1591 1592 1594 1595 1597 1598 1599 1600 1600 1601 1602 1603 1604 1604 1605 1606 1606 1607 1607 1607 1608 1608 1609 1609 1609 1609 1609 1609 1610 1610 1610 1611 1611
1573 1575 1577 1579 1581 1583 1584 1586 1588 1590 1591 1593 1594 1595 1596 1597 1598 1599 1600 1601 1602 1603 1603 1604 1605 1605 1606 1606 1607 1607 1607 1608 1608 1608 1609 1609 1609 1609 1609 1609 1609 1610
1572 1574 1576 1578 1579 1581 1583 1584 1587 1588 1590 1591 1592 1594 1595 1596 1597 1598 1599 1599 1600 1601 1602 1603 1603 1604 1605 1605 1606 1606 1607 1607 1607 1607 1608 1608 1608 1608 1608 1608 1608 1608
1570 1572 1574 1576 1577 1579 1581 1583 1585 1586 1588 1590 1591 1592 1593 1594 1595 1596 1597 1598 1599 1600 1600 1601 1602 1603 1603 1604 1605 1605 1606 1606 1606 1606 1607 1607 1607 1607 1607 1607 1607 1607
1569 1571 1572 1574 1576 1577 1579 1581 1583 1585 1586 1587 1589 1591 1592 1593 1593 1594 1595 1596 1597 1598 1599 1600 1601 1601 1602 1603 1603 1604 1605 1605 1606 1605 1606 1605 1606 1606 1606 1606 1606 1606
1567 1569 1571 1572 1574 1576 1577 1580 1581 1583 1585 1586 1587 1588 1590 1591 1592 1592 1593 1594 1595 1596 1597 1598 1599 1600 1601 1601 1602 1603 1603 1604 1604 1604 1605 1604 1604 1605 1604 1605 1604 1604
1566 1568 1569 1571 1573 1574 1575 1577 1577 1579 1581 1583 1584 1586 1587 1589 1590 1590 1591 1591 1592 1593 1594 1595 1597 1598 1599 1600 1600 1601 1601 1602 1602 1603 1603 1603 1603 1603 1603 1603 1603 1603
1565 1566 1568 1569 1571 1572 1573 1574 1575 1575 1576 1578 1581 1582 1584 1586 1587 1588 1589 1590 1590 1591 1592 1593 1594 1595 1596 1597 1598 1599 1599 1600 1600 1601 1601 1601 1602 1602 1602 1602 1602 1602
1563 1564 1566 1567 1569 1569 1571 1572 1573 1574 1574 1575 1577 1579 1581 1582 1584 1586 1587 1587 1588 1589 1590 1590 1591 1592 1593 1594 1595 1596 1597 1597 1598 1599 1599 1599 1600 1600 1600 1600 1600 1600
1562 1563 1564 1566 1567 1567 1568 1570 1571 1572 1572 1573 1574 1576 1579 1580 1582 1584 1585 1585 1586 1586 1587 1587 1588 1589 1589 1591 1592 1593 1594 1595 1595 1596 1596 1597 1597 1598 1598 1598 1598 1598
1561 1562 1563 1563 1564 1565 1565 1567 1569 1570 1571 1571 1572 1573 1577 1579 1581 1582 1583 1583 1583 1583 1584 1584 1585 1585 1586 1587 1588 1589 1590 1591 1592 1593 1593 1594 1594 1595 1595 1595 1596 1596
1562 1561 1561 1561 1561 1562 1563 1564 1565 1567 1569 1570 1570 1571 1573 1576 1579 1581 1581 1582 1581 1581 1581 1580 1581 1582 1583 1584 1585 1586 1587 1588 1588 1589 1590 1590 1590 1591 1591 1592 1593 1593
1562 1560 1560 1560 1560 1560 1561 1561 1562 1564 1565 1567 1568 1568 1569 1571 1574 1576 1578 1579 1579 1579 1578 1578 1578 1579 1580 1581 1582 1584 1585 1585 1586 1587 1587 1587 1587 1587 1588 1588 1589 1589
1560 1559 1558 1559 1559 1560 1560 1560 1561 1562 1562 1563 1564 1565 1566 1568 1569 1571 1574 1576 1577 1576 1576 1576 1576 1576 1577 1578 1579 1580 1582 1582 1583 1584 1584 1585 1585 1585 1585 1585 1585 1586
1558 1557 1557 1558 1558 1559 1559 1559 1560 1560 1560 1561 1562 1563 1564 1565 1567 1568 1570 1573 1574 1574 1574 1574 1573 1574 1574 1575 1576 1577 1578 1579 1580 1580 1581 1581 1582 1583 1583 1583 1583 1583
1557 1556 1555 1556 1557 1558 1558 1558 1558 1558 1559 1560 1561 1562 1562 1563 1564 1565 1566 1568 1569 1570 1570 1570 1570 1570 1571 1572 1573 1574 1575 1576 1576 1577 1578 1578 1578 1579 1580 1580 1580 1580
1556 1555 1554 1553 1554 1555 1556 1556 1557 1557 1557 1558 1559 1560 1560 1561 1561 1562 1563 1564 1565 1565 1566 1566 1567 1568 1568 1569 1570 1571 1572 1572 1573 1574 1574 1574 1575 1576 1576 1577 1577 1577
1556 1556 1555 1553 1553 1553 1554 1554 1555 1555 1556 1556 1557 1558 1558 1559 1559 1559 1560 1561 1561 1561 1562 1562 1563 1564 1565 1566 1566 1567 1568 1569 1570 1570 1570 1571 1571 1572 1573 1573 1574 1574
1557 1557 1556 1556 1555 1554 1554 1553 1553 1553 1553 1554 1555 1556 1557 1557 1557 1557 1557 1557 1558 1558 1558 1558 1559 1560 1561 1562 1563 1564 1565 1566 1567 1567 1567 1567 1567 1568 1569 1569 1570 1570
1557 1557 1557 1557 1557 1557 1556 1556 1554 1553 1553 1554 1555 1556 1557 1556 1555 1554 1554 1553 1554 1554 1555 1555 1556 1557 1558 1559 1560 1562 1563 1563 1564 1564 1563 1564 1564 1564 1565 1565 1566 1566
Wind_Speed
18 18 19 16 14 14 13 13 12 11 10 10 10 10 10 10 10 11 11 10 10 10 10 10 10 11 12 11 11 11 9 10 11 10 10 9 8 10 11 10 10 9
19 18 19 18 16 14 14 13 12 12 11 10 9 9 9 9 9 11 10 9 9 10 9 9 10 11 11 11 12 11 10 9 10 10 9 9 9 9 10 10 10 10
19 18 18 19 17 16 15 13 12 12 12 10 9 8 8 9 9 10 10 9 9 10 10 10 10 10 11 11 11 12 11 9 9 9 8 9 9 9 9 9 8 8
19 19 18 18 17 16 16 14 13 12 12 11 11 9 9 10 11 11 10 9 10 10 10 10 9 9 10 10 11 11 11 10 9 9 8 8 9 9 10 10 9 7
20 19 18 18 17 16 16 16 15 13 12 13 13 13 13 12 13 13 12 10 11 10 10 10 9 10 10 10 10 10 10 10 10 10 9 8 8 9 10 11 11 9
20 19 19 18 18 17 16 16 15 14 13 12 13 13 13 13 13 13 13 13 12 11 10 10 10 10 10 10 10 10 10 10 10 10 10 8 7 8 9 11 11 11
19 19 18 18 18 18 17 15 14 14 13 12 13 13 12 13 14 14 14 14 14 13 11 11 11 11 11 11 11 10 9 10 10 10 10 9 8 8 9 10 9 9
18 17 17 17 17 18 18 17 15 15 15 14 14 14 14 13 15 16 16 15 14 14 13 12 11 11 11 11 12 11 10 10 11 10 10 10 10 9 9 10 9 9
18 16 15 15 16 17 18 19 18 16 16 16 15 15 15 14 14 16 17 16 14 13 13 13 13 11 11 11 12 12 12 11 11 10 10 10 11 11 10 10 11 12
19 18 17 15 15 16 16 18 19 18 17 17 17 17 16 16 15 15 16 16 15 15 14 13 14 13 13 12 12 12 13 13 12 12 11 11 10 11 11 11 12 13
21 20 19 18 16 15 15 15 17 18 18 18 18 18 19 18 17 16 16 16 16 16 15 14 15 15 15 15 14 13 13 13 13 13 12 12 11 11 12 13 13 13
24 22 21 20 19 18 17 16 16 16 18 19 19 18 19 19 19 18 18 18 18 17 16 16 17 18 18 17 17 16 14 13 13 14 14 14 13 13 13 13 14 14
24 24 23 22 20 19 19 20 19 17 17 19 20 20 18 18 20 21 19 18 18 18 18 17 18 19 19 20 20 19 17 16 15 15 15 16 16 16 15 14 14 14
21 23 24 24 23 22 21 21 22 20 19 18 20 22 22 18 18 21 21 20 19 18 19 18 19 20 20 21 22 22 20 19 18 17 16 17 18 18 17 16 15 15
18 20 21 23 24 24 23 22 23 22 21 18 17 21 25 22 19 21 22 22 21 20 19 19 20 20 20 21 21 22 22 21 21 20 19 18 18 18 17 17 16 16
15 18 19 20 21 23 24 24 24 23 24 22 17 18 23 25 23 23 23 23 23 22 21 20 20 20 19 19 20 21 22 22 22 22 22 21 20 19 19 18 17 16
10 14 17 18 18 19 21 24 25 24 24 24 21 19 21 23 23 23 24 23 23 24 24 23 22 21 20 18 19 20 21 22 23 23 23 23 22 21 21 20 18 18
4 8 11 14 14 14 15 18 22 24 24 24 23 22 22 23 23 23 24 24 23 23 25 25 23 21 21 20 19 19 20 21 22 23 24 25 25 24 23 22 21 21
3 4 6 8 9 10 11 12 14 18 20 21 22 23 23 24 25 25 25 26 25 23 24 26 26 23 22 22 20 19 19 20 21 22 23 24 25 26 25 24 24 23
3 4 5 5 6 7 9 10 11 12 13 15 18 22 24 25 26 27 27 27 28 26 25 25 25 24 24 23 23 22 21 20 20 21 22 23 24 26 27 27 27 26
4 2 5 6 6 7 9 10 12 13 14 14 15 19 22 23 24 25 27 28 29 29 29 27 26 24 23 22 22 23 25 25 25 24 24 23 23 24 25 27 28 28
12 8 3 3 6 9 9 9 10 12 13 14 15 17 19 21 22 24 26 29 32 32 31 31 30 29 27 25 22 21 24 27 29 30 29 28 26 25 24 25 27 28
14 13 10 6 2 6 9 10 11 11 11 11 13 16 17 19 21 23 25 28 33 35 33 32 32 32 32 31 29 27 26 27 29 31 33 33 32 30 28 26 26 27
13 12 13 11 7 4 3 7 10 12 12 11 11 14 16 18 20 21 23 25 29 32 34 34 35 34 34 34 35 35 34 32 31 31 33 34 35 34 33 31 30 28
12 11 11 12 11 9 7 5 6 9 12 13 13 13 15 17 19 20 21 23 25 28 31 33 35 35 35 36 37 38 38 38 37 36 36 36 36 36 36 36 35 33
11 10 9 9 9 9 9 9 8 6 8 11 14 15 15 16 18 20 21 22 23 24 26 29 31 33 33 35 35 36 36 36 37 38 39 40 39 37 36 37 37 37
Wind_Direction
201 191 190 199 203 203 206 207 209 208 205 207 204 198 192 188 187 188 186 188 191 189 187 190 195 195 196 198 203 208 206 204 208 203 199 204 202 192 188 181 175 182
207 203 197 199 202 204 207 208 210 212 212 212 210 208 202 194 193 191 190 191 191 189 190 193 198 201 201 199 202 213 216 209 212 210 203 205 202 201 204 195 182 192
207 208 204 204 205 206 206 208 213 215 216 213 209 218 217 204 204 201 196 200 199 193 194 197 201 204 207 206 202 209 216 214 216 218 210 206 207 210 210 199 189 201
209 210 209 208 211 212 209 209 216 217 213 209 204 216 225 218 218 218 211 209 207 203 199 200 204 207 209 213 209 208 212 210 212 222 220 208 209 213 209 201 197 205
214 214 212 210 213 216 214 212 217 221 218 211 205 211 223 228 225 222 220 219 216 213 206 202 207 209 209 216 216 212 210 207 207 218 224 214 211 213 209 206 204 204
218 218 218 215 214 217 221 218 217 222 224 216 211 215 222 223 223 225 227 227 227 226 215 208 211 212 212 216 218 217 212 209 209 215 225 226 218 216 212 209 208 206
220 220 219 220 217 215 219 222 219 220 224 221 216 221 224 220 220 230 238 236 232 232 229 221 217 217 220 220 219 220 217 216 217 216 223 230 227 226 218 208 210 219
224 223 219 220 221 218 215 218 223 222 222 224 222 224 230 229 224 230 241 244 237 230 230 232 228 222 226 227 222 222 222 224 225 221 225 230 227 229 227 213 211 228
225 231 228 223 221 221 216 214 221 226 225 225 223 224 234 240 235 233 240 246 243 235 229 231 235 233 232 235 229 226 227 230 232 231 231 235 233 232 235 228 222 227
217 227 235 236 230 226 223 217 218 225 229 228 222 221 229 239 242 241 245 250 249 245 236 228 233 238 243 248 244 235 232 231 235 239 236 236 238 238 240 238 234 234
210 215 223 229 228 224 226 226 224 225 230 233 229 223 224 233 242 242 242 248 253 251 244 234 231 236 241 249 254 249 242 235 235 240 243 243 241 240 242 243 241 241
209 211 215 219 218 213 211 215 222 227 231 238 241 234 226 226 236 245 245 246 252 254 250 241 235 237 240 246 253 255 252 248 243 240 242 247 250 248 247 246 246 247
209 210 213 217 217 213 208 207 208 211 219 234 245 246 241 231 229 238 247 249 252 253 254 249 242 241 242 243 248 254 255 254 253 249 245 245 251 255 257 256 255 256
217 215 215 219 221 217 216 213 210 208 208 219 232 236 239 241 234 233 241 248 253 254 255 255 252 250 247 243 243 248 252 253 255 256 254 250 250 253 257 260 260 261
225 226 224 225 226 223 221 220 219 217 213 212 224 226 224 228 230 229 233 242 249 253 255 255 256 257 255 249 243 242 245 248 251 254 257 257 257 257 257 258 259 260
224 228 228 229 229 228 228 228 226 225 221 216 224 231 225 223 222 221 227 237 243 248 253 255 257 262 264 260 252 246 244 244 245 249 253 256 258 259 258 259 260 261
217 221 224 226 230 229 230 230 228 229 229 225 227 234 235 232 228 221 223 233 241 245 248 252 256 261 266 269 265 257 251 248 245 245 247 251 254 256 257 257 257 257
230 220 221 223 227 228 227 228 229 230 234 236 235 234 234 237 239 234 227 227 236 245 247 249 253 258 262 267 269 267 261 256 253 249 246 247 250 252 254 255 253 252
240 228 228 227 229 229 225 225 227 229 235 240 238 232 231 234 241 242 236 227 228 237 243 244 249 255 259 261 265 269 270 265 261 258 255 251 250 251 253 254 253 253
239 228 226 232 241 243 240 237 232 230 234 240 238 234 235 236 236 238 239 233 228 230 233 235 239 246 251 255 258 263 267 266 263 263 262 259 257 255 254 254 254 255
24 284 241 233 234 243 250 250 247 245 244 247 246 239 238 238 235 236 239 236 231 228 229 229 232 238 242 245 249 254 257 257 258 259 260 260 260 259 257 256 256 255
42 36 4 266 243 242 244 243 243 243 243 246 245 240 236 236 235 236 238 236 231 229 228 228 230 235 239 242 244 247 249 250 251 253 255 257 258 259 258 258 257 256
43 47 46 33 297 254 250 247 245 245 245 247 244 240 236 234 233 234 235 233 230 230 231 230 229 232 236 241 244 246 247 248 248 249 252 254 256 257 257 256 257 257
46 49 47 40 30 1 293 262 251 249 255 261 259 251 244 238 233 233 235 233 232 232 233 234 234 234 235 239 243 246 249 250 250 249 250 252 254 255 256 255 256 257
50 52 45 35 25 17 9 341 291 264 259 262 263 261 254 245 238 235 236 236 237 237 237 238 238 237 238 239 242 244 247 250 252 252 253 253 254 254 255 255 256 257
45 50 47 34 16 9 12 10 358 325 286 270 261 259 260 254 244 239 237 237 238 241 242 243 245 244 242 242 244 245 247 249 251 252 253 255 256 256 256 255 256 258